Home   Weather   47°03'N, 7°05'E   Past weeks
Flag for Switzerland

Past Weather in 47°03'N, 7°05'E, Switzerland — Yesterday and Last 2 Weeks

Now
27 °F

Ice fog.


Feels Like: 27 °F
Forecast: 61 / 34 °F
Wind: 1 mph from North

Location: Bern / Belp

Current Time: Mar 22, 2019 at 4:17:53 am

Latest Report: Mar 22, 2019 at 3:20 am


Visibility: 3 mi

Pressure: 30.42 "Hg

Humidity: 100%

Dew Point: 27 °F

Location of 47°03'N, 7°05'ELocation

Past Weather in 47°03'N, 7°05'E — Graph

°F

47°03'N, 7°05'E Temperature Yesterday

Maximum temperature yesterday: 55 °F (at 3:50 pm)
Minimum temperature yesterday: 23 °F (at 6:20 am)
Average temperature yesterday: 38 °F

High & Low Weather Summary for the Past Weeks

 TemperatureHumidityPressure
High64 °F (Mar 16, 3:20 pm)100% (Mar 12, 4:50 am)30.45 "Hg (Mar 12, 4:50 am)
Low23 °F (Mar 20, 3:50 am)30% (Mar 17, 11:20 am)29.47 "Hg (Mar 7, 3:20 am)
Average42 °F72%30.12 "Hg
* Reported Mar 7 3:20 am — Mar 22 3:20 am, 47°03'N, 7°05'E. Weather by CustomWeather, © 2019

Note: Actual official high and low records may vary slightly from our data, if they occured in-between our weather recording intervals... More about our weather records

Advertising

47°03'N, 7°05'E Weather History for the Previous 24 Hours

Scroll right to see more
 ConditionsComfort  
Time TempWeatherWind HumidityBarometerVisibility
3:20 am
Fri, Mar 22
27 °FIce fog.1 mph100%30.42 "Hg2 mi
2:50 am27 °FChilly.1 mph100%30.42 "Hg4 mi
2:20 am27 °FChilly.2 mph100%30.42 "Hg4 mi
1:50 am28 °FIce fog.1 mph100%30.42 "Hg2 mi
1:20 am28 °FChilly.2 mph100%30.42 "Hg4 mi
12:50 am30 °FChilly.1 mph93%30.42 "Hg4 mi
12:20 am32 °FIce fog.1 mph93%30.42 "Hg3 mi
11:50 pm
Thu, Mar 21
30 °FChilly.1 mph93%30.42 "Hg5 mi
11:20 pm32 °FChilly.1 mph93%30.42 "Hg5 mi
10:50 pm32 °FChilly.3 mph93%30.42 "Hg6 mi
10:20 pm36 °FClear.3 mph81%30.42 "Hg10 mi
9:50 pm36 °FPassing clouds.5 mph81%30.42 "HgN/A
9:20 pm36 °FClear.5 mph81%30.42 "Hg10 mi
8:50 pm36 °FClear.2 mph81%30.42 "Hg10 mi
8:20 pm39 °FClear.No wind75%30.39 "Hg10 mi
7:50 pm41 °FClear.No wind70%30.39 "Hg10 mi
7:20 pm45 °FClear.3 mph61%30.39 "Hg10 mi
6:50 pm48 °FPassing clouds.5 mph54%30.39 "HgN/A
6:20 pm50 °FPassing clouds.5 mph50%30.39 "HgN/A
5:50 pm52 °FPassing clouds.5 mph47%30.39 "HgN/A
5:20 pm54 °FSunny.8 mph44%30.39 "Hg10 mi
4:50 pm54 °FSunny.8 mph47%30.36 "Hg10 mi
4:20 pm55 °FPassing clouds.6 mph38%30.36 "HgN/A
3:50 pm55 °FSunny.3 mph38%30.36 "Hg10 mi
3:20 pm54 °FSunny.5 mph38%30.36 "Hg10 mi
2:50 pm54 °FSunny.3 mph44%30.39 "Hg10 mi
2:20 pm54 °FSunny.5 mph41%30.39 "Hg10 mi
1:50 pm52 °FSunny.2 mph44%30.39 "Hg10 mi
12:50 pm52 °FSunny.5 mph44%30.39 "Hg10 mi
12:20 pm48 °FPassing clouds.5 mph50%30.42 "HgN/A
11:50 am46 °FSunny.3 mph50%30.42 "Hg10 mi
11:20 am45 °FSunny.3 mph53%30.42 "Hg10 mi
10:50 am45 °FSunny.2 mph53%30.42 "Hg10 mi
10:20 am41 °FSunny.1 mph61%30.42 "Hg10 mi
9:50 am39 °FSunny.2 mph65%30.45 "Hg10 mi
9:20 am37 °FSunny.2 mph70%30.42 "Hg10 mi
8:50 am34 °FSunny.2 mph75%30.42 "Hg10 mi
8:20 am30 °FSunny.2 mph86%30.45 "Hg10 mi
7:50 am30 °FSunny.No wind86%30.45 "Hg10 mi
7:20 am25 °FSunny.3 mph93%30.42 "Hg10 mi
6:50 am23 °FSunny.2 mph93%30.42 "Hg10 mi
6:20 am23 °FCold.1 mph93%30.42 "Hg6 mi
5:50 am25 °FCold.2 mph93%30.42 "Hg6 mi
5:20 am25 °FClear.1 mph93%30.42 "Hg10 mi
4:50 am25 °FClear.1 mph93%30.42 "Hg10 mi
4:20 am25 °FClear.1 mph93%30.39 "Hg10 mi
Weather by CustomWeather, © 2019

See weather overview